Aérodrome :
LOGIN :

S'inscrire | Disclaimer

   EN    FR    IT 

 










Légende :    VFR   VFR Marginal   IFR   IFR Intensif   IFR Très Intensif
Visi : 
Plafond : 
>= 8 km
>= 3000ft
5 à 8 km
1000 à 3000 ft
1500m à 5 km
500 à 1000 ft
800 à 1500m
200 à 500 ft
< 800m
< 200 ft
Symboles :   Orages  Brouillard  Fortes neiges  Fortes précipitations  Vent > 20 kt
SIGMETs :   Divers  Orages  Givrage  Turbulence  Onde Orograph.  Cendres Volcan.







- Altitude de l'aérodrome : 364 ft
- Voir les cartes d'approche


LFAQ - Albert Bray

DERNIER METAR :
  • 242000Z AUTO 36006KT CAVOK 15/11 Q1023

METARs EXPIRÉS :
  • 241930Z AUTO 36007KT 340V040 CAVOK 17/11 Q1023
  • 241900Z AUTO 01009KT CAVOK 18/10 Q1023
  • 241830Z AUTO 01011KT CAVOK 19/10 Q1023
  • 241800Z AUTO 01011KT CAVOK 20/10 Q1023
  • 241730Z AUTO 01011KT CAVOK 20/10 Q1023

TAF TAF LFAQ
Valide du 24 à 15h jusqu'au 25 à 00h UTC


241400Z 2415/2424 01010KT CAVOK
Pas de NOTAMs connus pour ce terrain.



MET'MAP, la Météo Aéronautique d'un coup d'oeil ! - Copyright ORBIFLY Décembre 2007 - Disclaimer

ORBIFLY MET'MAP TEAM :

Programmation & Développement : Alexandra Zaïnal
Conception & Développement : Baudouin d'Aumeries
Co-Programmation & Développement : Marc-Olivier Méhu
Soutien technique & logistique : Manuel Goepfert

Contact : metmap@orbifly.com




SOURCES & CREDITS :

   NOAA